Simultaneous Nadir Overpasses (SNOs) Predictions

Prediction of SNOs between NPP and TERRA Satellite Orbit:

Table of predicted SNOs for the next 14.0 days since TLE Epoch: 6/6/2020
Index Date (NPP) Time (NPP) Lat,Lon (NPP) SZA (NPP ) Date (TERRA) Time (TERRA) Lat,Lon (TERRA) SZA (TERRA ) Distance(km) Time Diff (sec)
1 06/06/2020 10:38:59 -68.86,-161.83 133.96 06/06/2020 10:40:10 -68.75,-160.81 134.09 42.91 71
2 06/06/2020 11:29:34 68.25, 6.28 45.42 06/06/2020 11:29:44 68.25, 6.23 45.41 2.02 10
3 06/06/2020 12:20:15 -68.12, 173.77 134.73 06/06/2020 12:19:14 -68.14, 173.73 134.70 2.93 61
4 06/09/2020 02:55:44 -68.35, -45.38 134.72 06/09/2020 02:56:47 -68.36, -45.41 134.72 1.46 63
5 06/09/2020 03:46:28 68.23, 122.09 45.16 06/09/2020 03:46:14 68.25, 122.11 45.17 2.21 14
6 06/09/2020 04:37:02 -67.71, -69.95 135.37 06/09/2020 04:35:51 -67.75, -70.84 135.33 37.92 71
7 06/11/2020 19:12:38 -68.33, 70.43 134.94 06/11/2020 19:13:18 -68.35, 70.46 134.92 3.05 40
8 06/11/2020 20:03:22 68.21,-122.11 44.94 06/11/2020 20:02:46 68.18,-122.10 44.92 2.58 36
9 06/14/2020 10:39:01 69.03, 17.94 45.65 06/14/2020 10:40:10 68.94, 19.42 45.53 59.80 69
10 06/14/2020 11:29:31 -68.30,-173.76 135.10 06/14/2020 11:29:50 -68.28,-173.76 135.13 2.14 19
11 06/14/2020 12:20:15 68.18, -6.30 44.78 06/14/2020 12:19:17 68.16, -6.25 44.76 2.85 58
12 06/17/2020 02:55:43 68.37, 134.61 44.88 06/17/2020 02:56:53 68.35, 134.56 44.86 2.74 70
13 06/17/2020 03:46:25 -68.28, -57.95 135.22 06/17/2020 03:46:23 -68.26, -57.92 135.24 2.48 2
14 06/17/2020 04:37:05 67.95, 109.78 44.45 06/17/2020 04:35:52 68.03, 109.45 44.53 16.21 73
15 06/19/2020 19:12:37 68.35,-109.59 44.82 06/19/2020 19:13:26 68.38,-109.55 44.84 3.18 49
16 06/19/2020 20:03:18 -68.20, 57.92 135.34 06/19/2020 20:02:57 -68.23, 57.91 135.31 3.06 21
17 06/19/2020 20:53:46 67.22,-133.57 43.67 06/19/2020 20:52:39 67.26,-135.55 43.74 85.11 67




NCC Satellite Simultaneous Nadir Overpasses (SNOs) Prediction Service
